www.pogodaiklimat.ru

Погода и климат >> Архив погоды >> Россия >> Нижегородская область >> Дальнее Константиново


ПОГОДА в Дальнем Константиново

  • Прогноз погоды в Дальнем Константиново
  • Монитор погоды в Дальнем Константиново
  • Климат города

АРХИВ ПОГОДЫ в Дальнем Константиново

Время (UTC), дата Ветер
(напр.,м/с)
 
Видим.   Явления Облачность Т
(С)
Тd
(С)
f
(%)
Тe
(С)
Тes
(С)
Комфортность P
(гПа)
Po
(гПа)
Тmin
(С)
Tmax
(С)
R
(мм)
R24
(мм)
S
(см)
09 17.11 З 4-6
{8}
10 км {снег} 10/10 1000 м
[Sc]
+1.6 -0.3 87 -4 -4 1019.5 1002.7
12 17.11 З 3-5
{8}
10 км {снег} 10/10 600 м
[Sc]
+1.2 -1.1 85 -3 -3 1020.2 1003.4
15 17.11 З 2-4
{7}
4000 м 10/10 600 м
[Sc]
+1.0 -1.0 86 -2 -2 1020.3 1003.5 +2.1 0.0
18 17.11 ЮЗ 3-5
{7}
4000 м 10/10 1000 м
[Sc]
+1.0 -0.4 90 -4 -4 1019.7 1002.9
21 17.11 З 5-10
{10}
4000 м 10/10 600 м
[Sc]
+0.5 -1.8 85 -5 -5 1019.1 1002.3
00 18.11 ЮЗ 4-8
{10}
4000 м 9/0
[Ac trans]
-0.1 -2.2 86 -6 -6 1018.2 1001.4
03 18.11 ЮЗ 5-9
{12}
4000 м 10/10 600 м
[Sc]
+0.3 -1.7 86 -6 -6 1017.0 1000.2 -0.1
06 18.11 ЮЗ 3-6
{10}
10 км 10/10 600 м
[Sc]
+0.8 -1.2 86 -4 -4 1017.2 1000.5
09 18.11 ЮЗ 3-6
{8}
10 км 10/10 1000 м
[Sc]
+1.7 -0.5 85 -3 -3 1017.6 1000.9
12 18.11 ЮЗ 3-6
{7}
10 км 10/10 1000 м
[Sc]
+1.8 -0.1 87 -3 -3 1017.9 1001.2
15 18.11 ЮЗ 2-5
{6}
4000 м 10/10 600 м
[Sc]
+1.6 -0.0 89 -2 -2 1018.4 1001.7 +2.0
18 18.11 ЮЗ 2-4
{6}
4000 м 10/10 600 м
[Sc]
+1.5 +0.1 90 -2 -2 1018.4 1001.7
21 18.11 ЮЗ 3-7
{7}
4000 м 10/10 1000 м
[Sc]
+1.4 -0.3 88 -3 -3 1018.4 1001.7
00 19.11 Ю 2-4
{7}
4000 м 10/10 600 м
[Sc]
+1.5 +0.4 92 -2 -2 1018.2 1001.5
03 19.11 Ю 3-5
{6}
4000 м слабый дождь 10/0 600 м
[As op]
+1.3 +0.5 94 -3 -3 1017.4 1000.7 +1.3 0.0
06 19.11 Ю 3-5
{6}
10 км слабый дождь 10/0 600 м
[As op]
+1.0 +0.2 94 -4 -4 1017.3 1000.6 +0.9
09 19.11 Ю 3-5
{6}
10 км {дождь} 10/10 600 м
[Sc]
+1.5 -0.2 88 -3 -3 1016.9 1000.2
12 19.11 Ю 3-6
{6}
10 км {дождь} 10/10 600 м
[Sc]
+1.4 0.0 90 -3 -3 1015.7 999.0
15 19.11 Ю 2-5
{6}
4000 м слабый дождь 10/0 600 м
[As op]
+1.2 +0.4 94 -2 -2 1014.9 998.2 +2.3 0.0
18 19.11 Ю 2-4
{6}
4000 м слабый дождь 10/0 600 м
[As op]
+1.1 +0.6 96 -3 -3 1013.7 997.1
21 19.11 Ю 2-4
{6}
4000 м {дождь} 10/10 600 м
[Sc]
+1.2 +0.7 96 -2 -2 1012.6 996.0
00 20.11 Ю 2-4
{5}
4000 м {дождь} 10/10 600 м
[Sc]
+1.6 +1.3 98 -2 -2 1011.2 994.6
03 20.11 Ю 2-4
{4}
4000 м слабая морось 10/10 300 м
[St]
+2.4 +2.2 99 -1 -1 1010.9 994.4 +0.5 1
06 20.11 ЮЗ 2-4
{6}
10 км слабый дождь {морось} 10/0 600 м
[As op]
+3.5 +2.7 94 0 0 1011.5 995.0
09 20.11 З 2-4
{6}
10 км {дождь} 10/10 600 м
[Sc]
+3.9 +2.7 92 +1 +1 1012.9 996.4
12 20.11 СЗ 2-3
{5}
10 км {дождь} 10/10 1000 м
[Sc]
+3.0 +2.0 93 -0 -0 1013.6 997.1
15 20.11 В 1-2
{3}
4000 м 10/10 600 м
[Sc]
+2.3 +1.5 94 +1 +1 1014.3 997.6 +4.0 0.7
18 20.11 В 1-2
{2}
4000 м 10/10 600 м
[Sc]
+2.0 +1.5 96 0 0 1013.5 996.9
21 20.11 В 2-3
{5}
4000 м слабый дождь 10/0 600 м
[As op]
+1.7 +1.4 98 -2 -2 1011.8 995.2
00 21.11 СВ 1-3
{6}
4000 м слабый дождь 10/0 600 м
[As op]
+1.6 +1.6 100 -1 -1 1008.7 992.2
03 21.11 Ю 5-9
{9}
4000 м {дождь} 10/10 600 м
[Sc]
+4.9 +4.7 99 -0 -0 1005.6 989.3 +0.6 8
06 21.11 Ю 4-6
{9}
10 км слабый дождь 10/10 300 м
[Frnb Ns]
+3.8 +3.3 97 -1 -1 1005.0 988.6
09 21.11 Ю 3-5
{7}
10 км в посл. час дождь 10/10 600 м
[Sc]
+2.9 +2.4 97 -1 -1 1005.0 988.6
12 21.11 Ю 2-4
{6}
10 км {дождь} 10/10 600 м
[Sc]
+2.9 +2.4 97 -0 -0 1004.5 988.1
15 21.11 Ю 2-3
{5}
4000 м слабый дождь 10/0 600 м
[As op]
+3.0 +2.5 97 -0 -0 1004.4 988.0 +5.2 9
18 21.11 Ю 2-3
{5}
4000 м слабый дождь 10/0 600 м
[As op]
+3.3 +3.0 98 0 0 1003.9 987.5
21 21.11 ЮВ 1-2
{4}
4000 м {дождь} 10/10 600 м
[Sc]
+3.5 +3.0 97 +2 +2 1004.3 987.9
00 22.11 Ю 2-4
{4}
4000 м {дождь} 10/10 600 м
[Sc]
+3.2 +3.0 99 -0 -0 1004.1 987.7
03 22.11 ЮВ 2-4
{5}
4000 м дымка 10/10 300 м
[St]
+2.6 +2.6 100 -1 -1 1003.4 987.1 +2.6 1
06 22.11 ЮВ 3-5
{5}
10 км 10/10 600 м
[Sc]
+1.6 +1.1 96 -3 -3 1003.5 987.1 +1.6
09 22.11 ЮВ 4-6
{6}
10 км 9/9 1000 м
[Sc]
+2.4 +0.8 89 -3 -2 1003.1 986.8
12 22.11 ЮВ 1-3
{6}
10 км 10/10 600 м
[Sc]
+2.0 +0.7 91 0 0 1002.6 986.2
15 22.11 Ю 1-2
{3}
4000 м 10/10 600 м
[Sc]
+1.8 +0.7 92 -0 -0 1002.9 986.5 +2.8
18 22.11 ЮВ 1-2
{2}
4000 м 10/10 600 м
[Sc]
+1.7 +1.4 98 -0 -0 1002.8 986.4
21 22.11 штиль 0
{2}
500 м туман 10/10 300 м
[St]
+1.6 +1.3 98 0 0 1003.3 986.9
00 23.11 С 2-4
{4}
2000 м слабый дождь {туман} 10/0 600 м
[As op]
+1.6 +1.6 100 -2 -2 1003.7 987.3
03 23.11 СЗ 4-7
{7}
4000 м слабый снег {дождь} 10/0 600 м
[As op]
+0.2 -0.1 98 -5 -5 1005.3 988.7 +0.2 2
06 23.11 С 3-7
{8}
4000 м слабый снег {дождь} 10/0
[As op]
-1.6 -1.8 99 -7 -7 1008.1 991.3 -1.6
09 23.11 С 5-9
{9}
4000 м слабый снег 10/0
[As op]
-2.0 -2.6 96 -9 -9 1009.6 992.8
12 23.11 С 4-7
{9}
10 км {снег} 10/0
[As op]
-2.3 -3.5 91 -8 -8 1011.4 994.6
15 23.11 С 5-8
{10}
4000 м слабый снег 10/0
[As op]
-3.1 -4.1 93 -10 -10 1014.6 997.7 +0.3 3
18 23.11 С 4-6
{8}
4000 м слабый снег 10/0 600 м
[As op]
-3.6 -4.7 92 -10 -10 1016.8 999.7
21 23.11 С 5-7
{8}
4000 м слабый снег 10/0 600 м
[As op]
-4.3 -5.5 91 -11 -11 1018.1 1001.0
00 24.11 С 2-5
{7}
4000 м слабый снег 10/0 600 м
[As op]
-4.6 -5.5 93 -9 -9 1020.0 1002.9
03 24.11 С 4-5
{6}
4000 м слабый снег 10/0 600 м
[As op]
-4.8 -5.8 93 -11 -11 1021.4 1004.3 -4.8 0.6 3
06 24.11 С 2-3
{6}
10 км {снег} 10/10 600 м
[Sc]
-5.0 -6.0 93 -9 -9 1022.6 1005.5 -5.0

 

Местоположение метеостанции Дальнее Константиново (Нижегородская область, Россия): широта 55.80 долгота 44.08 высота над уровнем моря 133 м.

В архиве по умолчанию представлена погода в Дальнем Константиново за последнюю неделю. Архивные данные за месяц целиком и за предыдущие месяцы, начиная с января 2011 года, Вы можете получить, выбрав интересующий диапазон дат из раскрывающегося списка и нажав кнопку "Ввод!".

Внимание! Время в таблицах - всемирное. Для получения местного времени необходимо прибавить поправку, которая в Дальнем Константиново равна 3 ч.

Смотрите также архив погоды в соседних городах и на ближайших метеорологических станциях:

Погода в Нижнем Новгороде аэропорт (Нижегородская область, Россия) (51 км)
Погода в Арзамасе (Нижегородская область, Россия) (51 км)
Погода в Нижнем Новгороде (Нижегородская область, Россия) (53 км)
Погода в Лысково (Нижегородская область, Россия) (64 км)
Погода в Павлово (Нижегородская область, Россия) (68 км)
Погода в Лукоянове (Нижегородская область, Россия) (90 км)
Погода в Сергаче (Нижегородская область, Россия) (94 км)
Погода в Волжской ГМО (Нижегородская область, Россия) (106 км)
Погода в Семенове (Нижегородская область, Россия) (107 км)
Погода в Большом Болдино (Нижегородская область, Россия) (117 км)

Пояснения к столбцам:

Ветер - указаны скорость ветра в м/с - средняя за 10 мин, порывы в срок и между сроками (в фигурных скобках) и направление, откуда дует ветер: С - северный, СВ - северо-восточный, В - восточный, ЮВ - юго-восточный, Ю - южный, ЮЗ - юго-западный, З - западный, СЗ - северо-западный.
Видимость - горизонтальная дальность видимости в метрах или километрах. При видимости от 1 до 10 км при отсутствии осадков обычно наблюдается дымка, при ухудшении видимости до 1 км и менее - туман. В сухую погоду видимость может ухудшаться дымом, пылью или мглою.
Явления - указаны атмосферные явления, наблюдавшиеся в срок или в последний час перед сроком; фигурными скобками обозначены явления, наблюдавшиеся между сроками (за 1-3 часа до срока); квадратными скобками обозначены град или гололедные отложения с указанием их диаметра в мм.
Облачность - указаны через наклонную черту общая и нижняя облачность в баллах и высота нижней границы облаков в метрах; квадратными скобками обозначены формы облаков: Ci - перистые, Cs - перисто-слоистые, Cc - перисто-кучевые, Ac - высококучевые, As - высокослоистые, Sc - слоисто-кучевые, Ns - слоисто-дождевые, Cu - кучевые, Cb - кучево-дождевые. Подробнее классификацию облаков см. в Атласе облаков (PDF).
T - Температура воздуха - температура, измеренная на высоте 2 м над землей.
Td - Температура точки росы - температура, при понижении до которой содержащийся в воздухе водяной пар достигнет насыщения.
f - Относительная влажность воздуха - влажноcть воздуха, измеренная на высоте 2 м над землей.
Te - Эффективная температура - температура, которую ощущает одетый по сезону человек в тени. Характеристика душности погоды. При расчете учитывается влияние влажности воздуха и скорости ветра на теплоощущения человека.
Tes - Эффективная температура на солнце - температура, которую ощущает человек, с поправкой на солнечный нагрев. Характеристика знойности погоды. Зависит от высоты солнца над горизонтом, облачности и скорости ветра. Ночью, в пасмурную погоду, а также при ветре 12 м/с и более поправка равна нулю.
P - Атмосферное давление - приведенное к уровню моря атмосферное давление.
Po - Атмосферное давление - измеренное на уровне метеостанции атмосферное давление.
Tmin - Минимальная температура - минимум температуры воздуха на высоте 2 м над землей.
Tmax - Максимальная температура - максимум температуры воздуха на высоте 2 м над землей.
R - Количество осадков - Количество выпавших осадков за период времени, мм. При наведении курсора мыши на число - период времени, за который выпало указанное количество осадков.
R24 - Количество осадков - Количество выпавших осадков за 24 часа, мм.
S - Снежный покров - Высота снежного покрова, см. При наведении курсора мыши на число - состояние снежного покрова и степень покрытия местности в баллах.